User: anonymous   Login
Location: Unspecified
(0.0000°N, 0.0000°E)
Time: 01:05:08
(UTC+00:00)
Language:

GALILEO 12 (269) - Orbit

View from above orbital plane
View from above orbital plane
View from above satellite
View from above satellite

Ground track
Ground track

The orbit data is extracted from the following two-line orbital elements,

1 41174U 15079A   17143.77273812 +.00000069 +00000-0 +00000-0 0  9997
2 41174 054.9203 192.3941 0006210 279.6950 080.3338 01.70473912008498
Epoch (UTC): 23 May 2017 18:32:44
Eccentricity: 0.0006210
inclination: 54.9203°
perigee height: 23203 km
apogee height: 23240 km
right ascension of ascending node: 192.3941°
argument of perigee: 279.6950°
revolutions per day: 1.70473912
mean anomaly at epoch: 80.3338°
orbit number at epoch: 849

The dashed part of the orbit path shows where the satellite is in the earth's shadow,  

DLR